カタログに戻る

FENGYUN 1C DEB

運用中PO
NORAD 30639·DEBRIS·🇨🇳 China

打ち上げ May 10, 1999 から Taiyuan Satellite Launch Center

Loading…

次のパス (今後24時間)

TLE

最新Source: Space-Track

元期: Sep 13, 2026, 20:51 UTC

1 30639U 99025ANW 26256.86897773  .00005036  00000-0  16991-2 0  9994
2 30639  99.0279  25.9458 0064859 197.3363 162.5606 14.36238957  6624

AllMySatでFENGYUN 1C DEBをリアルタイム追跡

Download on the App Store